Regional Weather Roundup
Issued by NWS

Home | Current Version | Previous Version | Graphics & Text | Print | Product List | Glossary Off
Versions: 1 2 3 4 5 6 7 8 9 10 11 12 13 14 15 16 17 18 19 20 21 22 23 24 25 26 27 28 29 30 31 32 33 34 35 36 37 38 39 40 41 42 43 44 45 46 47 48 49 50

000
ASUS43 KLSX 071159
RWRMO

WEATHER SUMMARY FOR MISSOURI
NATIONAL WEATHER SERVICE SPRINGFIELD MO
700 AM CDT TUE JUL 07 2015

NOTE: "FAIR" INDICATES FEW OR NO CLOUDS BELOW 12,000 FEET WITH NO
       SIGNIFICANT WEATHER AND/OR OBSTRUCTIONS TO VISIBILITY.
       CURRENT SKY AND/OR WEATHER CONDITIONS ARE NOT AVAILABLE FOR
       CHILLICOTHE AND FARMINGTON.

MOZ001>031-035>038-043-044-053-054-071300-
...NORTHERN AND WESTERN MISSOURI...

CITY           SKY/WX    TMP DP  RH WIND       PRES   REMARKS
KANSAS CTY INT CLOUDY    64  62  93 N8        30.02R FOG
6HR MIN TEMP:  61; 6HR MAX TEMP:  67; 6HR PCP:  0.93;

KANSAS C DTWN  LGT RAIN  64  61  90 NE6       30.02R FOG
6HR MIN TEMP:  62; 6HR MAX TEMP:  71; 6HR PCP:  0.45;

LEE`S SUMMIT   CLOUDY    61  59  93 N8        30.02S FOG
6HR MIN TEMP:  61; 6HR MAX TEMP:  72; 6HR PCP:  0.66;

ST JOSEPH      MOCLDY    62  56  80 MISG      30.05R
6HR MIN TEMP:  62; 6HR MAX TEMP:  67; 6HR PCP:  0.06;

CHILLICOTHE      N/A     65  62  90 N6        30.02S
6HR MIN TEMP:  63; 6HR MAX TEMP:  69; 6HR PCP:  0.31;

KIRKSVILLE     CLOUDY    63  58  83 N10       30.01R HAZE
6HR MIN TEMP:  62; 6HR MAX TEMP:  68; 6HR PCP:  0.10;


$$
MOZ066>068-077>081-088>096-101>105-071300-
...SOUTHWEST MISSOURI...

CITY           SKY/WX    TMP DP  RH WIND       PRES   REMARKS
SPRINGFIELD    CLOUDY    74  71  91 SW3       29.95S
6HR MIN TEMP:  73; 6HR MAX TEMP:  76; 6HR PCP:  0.26;

JOPLIN         CLOUDY    72  70  93 W3        29.95R FOG
6HR MIN TEMP:  70; 6HR MAX TEMP:  73; 6HR PCP:  0.09;


$$
MOZ032>034-039>042-045>050-055>058-069>072-071300-
...CENTRAL MISSOURI...

CITY           SKY/WX    TMP DP  RH WIND       PRES   REMARKS
COLUMBIA       CLOUDY    67  65  93 N10       29.95R FOG
6HR MIN TEMP:  67; 6HR MAX TEMP:  72; 6HR PCP:  0.20;

ROLLA          LGT RAIN  70  69  97 SW6       29.94R
6HR MIN TEMP:  70; 6HR MAX TEMP:  77; 6HR PCP:  0.51;

SEDALIA        CLOUDY    65  61  87 N9        29.99R FOG
6HR MIN TEMP:  65; 6HR MAX TEMP:  73; 6HR PCP:  0.11;

OSAGE BEACH    CLOUDY    72  70  94 CALM      29.95R

$$
MOZ051-052-059>065-071300-
...EAST CENTRAL MISSOURI...

CITY           SKY/WX    TMP DP  RH WIND       PRES   REMARKS
ST LOUIS INTL  LGT RAIN  75  71  87 SW8       29.92R
6HR MIN TEMP:  75; 6HR MAX TEMP:  81; 6HR PCP:  0.01;

SPIRIT OF STL  LGT RAIN  73  72  96 SW5       29.91R
6HR MIN TEMP:  73; 6HR MAX TEMP:  80; 6HR PCP:  0.05;

ST CHARLES     LGT RAIN  73  72  96 W8        29.90R
6HR MIN TEMP:  73; 6HR MAX TEMP:  81; 6HR PCP:  0.07;


$$
MOZ072>076-082>087-097>100-106>115-071300-
...SOUTH CENTRAL AND SOUTHEAST MISSOURI...

CITY           SKY/WX    TMP DP  RH WIND       PRES   REMARKS
CAPE GIRARDEAU CLOUDY    77  74  90 SW10      29.95S
6HR MIN TEMP:  74; 6HR MAX TEMP:  77;

FARMINGTON     CLOUDY    72  70  94 SW5       30.00R
6HR MIN TEMP:  72; 6HR MAX TEMP:  75; 6HR PCP:  0.47;

POPLAR BLUFF   CLOUDY    77  75  93 S9        29.95S
6HR MIN TEMP:  74; 6HR MAX TEMP:  77; 6HR PCP: TRACE;

WEST PLAINS    CLOUDY    75  71  87 SW7       29.98R
6HR MIN TEMP:  75; 6HR MAX TEMP:  77; 6HR PCP:  0.02;


$$



USA.gov is the U.S. government's official web portal to all federal, state and local government web resources and services.